CW4352 Weather Reports


Display with metric or nautical units.
time (UTC)temp
F
wind
direction
speed
MPH
gust
MPH
rain 1hr
in
rain 24hr
in
rain mn
in
humidity
%
barometer
mb
20240527160338 73 159 1.0 7.0 0.00 0.00 0.00 48 1011.5
20240527153838 75 5 0.0 2.0 0.00 0.00 0.00 51 1011.5
20240527153338 75 5 1.0 3.0 0.00 0.00 0.00 54 1011.3
20240527151338 75 19 1.0 3.0 0.00 0.00 0.00 53 1011.3
20240527150838 75 20 1.0 3.0 0.00 0.00 0.00 54 1011.3
20240527150338 75 20 2.0 5.0 0.00 0.00 0.00 52 1011.6
20240527144838 75 55 2.0 3.0 0.00 0.00 0.00 54 1011.6
20240527144338 75 55 1.0 3.0 0.00 0.00 0.00 54 1011.6
20240527143338 75 37 2.0 3.0 0.00 0.00 0.00 53 1011.6
20240527141838 75 6 2.0 5.0 0.00 0.00 0.00 53 1011.6
20240527140838 74 53 2.0 5.0 0.00 0.00 0.00 51 1011.6
20240527134338 75 54 2.0 5.0 0.00 0.00 0.00 50 1011.6
20240527130838 78 29 2.0 3.0 0.00 0.00 0.00 45 1011.6
20240527124338 78 47 2.0 6.0 0.00 0.00 0.00 47 1012.1
20240527123338 78 102 3.0 9.0 0.00 0.00 0.00 45 1012.1
20240527121838 78 49 1.0 5.0 0.00 0.00 0.00 45 1012.5
20240527121338 78 114 3.0 7.0 0.00 0.00 0.00 47 1012.5
20240527114838 77 25 1.0 6.0 0.00 0.00 0.00 44 1012.8
20240527114338 77 66 2.0 5.0 0.00 0.00 0.00 47 1012.8
20240527111338 76 162 2.0 3.0 0.00 0.00 0.00 50 1013.4
20240527110838 77 10 3.0 6.0 0.00 0.00 0.00 45 1013.4
20240527104838 77 49 3.0 8.0 0.00 0.00 0.00 42 1013.4
20240527104338 77 78 1.0 6.0 0.00 0.00 0.00 42 1013.4
20240527103338 77 72 2.0 5.0 0.00 0.00 0.00 48 1013.4
20240527100338 75 54 4.0 8.0 0.00 0.00 0.00 53 1013.7
20240527094339 74 22 2.0 3.0 0.00 0.00 0.00 52 1013.7
20240527091338 73 43 2.0 3.0 0.00 0.00 0.00 60 1013.7
20240527090838 73 55 2.0 5.0 0.00 0.00 0.00 61 1013.7
20240527084338 73 16 2.0 3.0 0.00 0.00 0.00 62 1013.7
20240527083838 72 14 2.0 6.0 0.00 0.00 0.00 61 1013.7
20240527081838 72 12 3.0 5.0 0.00 0.00 0.00 61 1014.0
20240527081338 72 23 2.0 3.0 0.00 0.00 0.00 58 1014.0
20240527080837 72 9 1.0 3.0 0.00 0.00 0.00 61 1014.0
20240527074338 72 349 1.0 3.0 0.00 0.00 0.00 60 1014.0
20240527073338 72 276 0.0 3.0 0.00 0.00 0.00 61 1014.0
20240527071338 70 244 0.0 2.0 0.00 0.00 0.00 61 1014.0
20240527070337 69 244 0.0 2.0 0.00 0.00 0.00 65 1014.0
20240527064838 66 244 0.0 1.0 0.00 0.00 0.00 74 1014.0
20240527064338 65 244 0.0 1.0 0.00 0.00 0.00 75 1014.0
20240527060338 62 244 0.0 2.0 0.00 0.00 0.00 79 1013.8
20240527054838 61 244 0.0 2.0 0.00 0.00 0.00 81 1013.8
20240527054339 60 244 0.0 2.0 0.00 0.00 0.00 81 1013.8
20240527053838 60 244 0.0 2.0 0.00 0.00 0.00 81 1013.8
20240527053338 59 244 1.0 3.0 0.00 0.00 0.00 82 1013.8
20240527051838 58 244 0.0 1.0 0.00 0.00 0.00 83 1013.8
20240527050338 57 244 0.0 2.0 0.00 0.00 0.00 86 1013.8
20240527044838 56 244 0.0 2.0 0.00 0.00 0.00 85 1013.8
20240527043338 55 244 0.0 2.0 0.00 0.00 0.00 85 1013.6
20240527033338 57 244 0.0 2.0 0.00 0.00 0.00 77 1013.7
20240527031838 58 244 0.0 2.0 0.00 0.00 0.00 73 1013.7
20240527030338 58 244 0.0 3.0 0.00 0.00 0.00 73 1013.7
20240527024838 58 244 1.0 3.0 0.00 0.00 0.00 73 1013.7
20240527023838 58 244 1.0 3.0 0.00 0.00 0.00 73 1013.7
20240527021338 59 243 2.0 3.0 0.00 0.00 0.00 72 1013.7
20240527020838 59 243 3.0 5.0 0.00 0.00 0.00 72 1013.7
20240527020338 59 242 2.0 3.0 0.00 0.00 0.00 72 1013.7
20240527014837 59 242 2.0 5.0 0.00 0.00 0.00 72 1013.7
20240527014338 59 242 2.0 3.0 0.00 0.00 0.00 72 1013.7
20240527013837 59 242 2.0 3.0 0.00 0.00 0.00 72 1013.7
20240527011837 59 242 2.0 3.0 0.00 0.00 0.00 70 1013.9
20240527011338 59 242 1.0 3.0 0.00 0.00 0.00 70 1013.9
20240527010338 59 242 2.0 3.0 0.00 0.00 0.00 70 1013.9
20240526234338 61 246 2.0 3.0 0.00 0.00 0.00 69 1014.2
20240526231837 61 233 3.0 3.0 0.00 0.00 0.00 69 1014.2
20240526231338 61 233 2.0 5.0 0.00 0.00 0.00 69 1014.2
20240526224836 61 234 2.0 3.0 0.00 0.00 0.00 69 1014.2
20240526224336 61 234 1.0 3.0 0.00 0.00 0.00 69 1014.2
20240526223336 61 256 2.0 3.0 0.00 0.00 0.00 69 1014.2
20240526221835 61 52 2.0 3.0 0.00 0.00 0.00 68 1014.2
20240526220837 62 52 1.0 3.0 0.00 0.00 0.00 67 1014.2
20240526220336 62 52 1.0 3.0 0.00 0.00 0.00 67 1014.2
20240526213836 62 52 1.0 2.0 0.00 0.00 0.00 65 1013.9
20240526211835 63 52 0.0 1.0 0.00 0.00 0.00 65 1013.9
20240526204836 63 52 1.0 2.0 0.00 0.00 0.00 64 1013.8
20240526201336 64 52 0.0 1.0 0.00 0.00 0.00 62 1013.6
20240526200336 64 52 0.0 0.0 0.00 0.00 0.00 61 1013.0
20240526194835 65 52 0.0 0.0 0.00 0.00 0.00 59 1013.0
20240526190336 69 52 0.0 0.0 0.00 0.00 0.00 52 1012.7
20240526184836 71 52 0.0 0.0 0.00 0.00 0.00 51 1012.7
20240526184336 71 52 0.0 0.0 0.00 0.00 0.00 51 1012.7
20240526183836 72 52 0.0 0.0 0.00 0.00 0.00 50 1012.7
20240526183335 72 52 0.0 0.0 0.00 0.00 0.00 51 1012.7
20240526173836 76 52 1.0 2.0 0.00 0.00 0.00 41 1012.2
20240526173335 76 52 0.0 2.0 0.00 0.00 0.00 41 1012.2
20240526170335 77 52 1.0 3.0 0.00 0.00 0.00 40 1012.1
20240526164836 77 52 1.0 3.0 0.00 0.00 0.00 39 1012.1
20240526164335 77 52 1.0 3.0 0.00 0.00 0.00 39 1012.1
20240526161835 77 57 3.0 3.0 0.00 0.00 0.00 37 1012.2